SCP
-0 -0 -0 -0 -0 -0 -0 -0 -0 -0 0 0 0 0 0 0 0 0 0 0 0 0 0 0 0 0 0 0 0 0 0 -0 -0 0 0 0 0 0 0 0 0 0 0
-0 -0 -0 -0 -0 -0 -0 -0 -0 -0 -0 0 0 0 0 0 0 0 0 0 0 0 0 0 0 0 0 0 0 0 0 0 0 0 0 0 0 0 0 0 0 0 0
0 -0 -0 -0 -0 -0 -0 -0 -0 -0 -0 -0 0 0 0 0 0 0 0 0 0 0 0 0 0 0 0 0 0 0 0 0 0 0 0 0 0 0 0 0 0 0 0
0 0 -0 -0 -0 -0 -0 -0 -0 -0 -0 -0 -0 -0 0 0 0 0 0 0 0 0 0 0 0 0 0 0 0 0 0 0 0 0 0 0 0 0 0 0 0 0 0
0 0 0 0 0 0 0 0 0 0 0 -0 -0 -0 -0 -0 0 0 0 0 0 0 0 0 0 0 0 0 0 0 0 0 0 0 0 0 0 0 0 0 0 0 0
0 0 0 0 0 0 0 0 0 0 0 0 0 0 0 -0 0 0 0 0 0 0 0 0 0 0 0 0 0 0 0 0 0 0 0 0 0 0 0 0 0 0 0
0 0 0 0 0 0 0 0 0 0 0 0 0 0 0 0 0 0 0 0 0 0 0 0 0 0 0 0 0 0 0 0 0 0 0 0 0 0 0 0 0 0 0
0 0 0 0 0 0 0 0 0 0 0 0 0 0 0 0 0 0 0 0 0 0 -0 -0 0 0 0 0 0 0 0 0 0 0 0 0 0 0 0 0 0 0 0
0 0 0 0 0 0 0 0 0 0 0 0 0 0 0 0 0 0 0 0 0 0 -0 -0 -0 0 0 0 0 0 0 0 0 0 0 0 0 0 0 0 0 0 0
0 0 0 0 0 0 0 0 0 0 0 0 0 0 0 0 0 0 0 0 0 0 -0 -0 -0 -0 0 0 0 0 0 0 0 0 0 0 0 0 0 0 0 0 0
0 0 0 0 0 0 0 0 0 0 0 0 0 0 0 0 0 0 0 0 0 0 0 -0 -0 -0 -0 0 0 0 0 0 0 0 0 0 0 0 0 0 0 0 0
0 0 0 0 0 0 0 0 0 0 0 0 0 0 0 0 0 0 0 0 0 0 0 -0 -0 -0 -0 0 0 0 0 0 0 0 0 0 0 0 0 0 0 0 0
0 0 0 0 0 0 0 0 0 0 0 0 0 0 0 0 0 0 0 0 0 0 0 0 -0 -0 -0 -0 0 -0 0 0 0 0 0 0 0 0 0 0 0 0 0
0 0 0 0 0 0 0 0 0 0 0 0 0 0 0 0 0 0 0 0 0 0 0 0 0 0 -0 -0 -0 -0 -0 -0 0 0 0 0 0 0 0 0 0 0 0
0 0 0 0 0 0 0 0 0 0 0 0 0 0 0 0 0 0 0 0 0 0 0 0 0 0 0 -0 -0 -0 -0 -0 -0 0 0 0 0 0 0 0 0 0 0
0 0 0 0 0 0 0 0 0 0 0 0 0 0 0 0 0 0 0 0 0 0 0 0 0 0 0 -0 0 -0 0 0 -0 0 0 0 0 0 0 0 0 0 0
0 0 0 0 0 0 0 0 0 0 0 0 0 0 0 0 0 0 0 0 0 0 0 0 0 -0 -0 -0 0 0 0 0 0 0 0 0 0 0 0 0 0 0 0
0 0 0 0 0 0 0 0 0 0 0 0 0 0 0 0 0 0 0 0 0 0 0 0 0 0 0 0 0 0 0 0 0 0 0 -0 0 0 0 0 0 0 0
0 0 0 0 0 0 0 0 1 1 1 0 0 0 0 0 0 0 0 0 0 0 0 0 0 0 0 0 0 0 0 0 0 0 0 -0 0 0 0 0 0 0 0
0 0 0 0 0 0 0 0 1 1 1 1 0 0 0 0 0 0 0 0 0 0 0 0 0 0 0 0 0 0 0 0 0 0 0 0 0 0 0 0 0 0 0
0 0 0 0 0 0 0 0 0 1 1 1 1 1 0 0 0 0 0 0 0 0 0 0 0 0 0 0 0 0 0 0 0 0 0 0 0 0 0 0 0 0 0
0 0 0 0 0 0 0 0 0 0 0 1 1 1 1 0 0 0 0 0 0 0 0 0 0 0 0 0 0 0 0 0 0 0 0 0 0 0 0 0 0 0 0
0 0 0 0 0 0 0 0 0 0 0 0 1 1 1 0 0 0 0 0 0 0 0 0 0 0 0 0 0 0 0 0 0 0 0 0 0 0 0 0 0 0 0
0 0 0 0 0 0 0 0 0 0 0 0 0 0 0 0 0 0 0 0 0 0 0 0 0 0 0 0 0 0 0 0 0 0 0 0 0 0 0 0 0 0 0
0 0 0 0 0 0 0 0 0 0 0 0 0 0 0 0 0 0 0 0 0 0 0 0 0 0 0 0 0 0 0 0 0 0 0 0 0 0 0 0 0 0 0
0 0 0 0 0 0 0 0 0 0 0 0 0 0 0 0 0 0 0 0 0 0 0 0 0 0 0 0 0 0 0 0 0 0 0 0 0 0 0 0 0 0 0
Wind_Speed
5 5 10 10 11 11 11 11 12 12 13 13 13 13 13 13 12 12 11 10 9 8 8 7 7 7 7 8 8 8 8 9 9 9 9 10 10 9 9 8 7 5 8
8 7 12 12 11 11 11 11 11 11 11 12 12 12 12 12 12 11 11 10 9 8 7 7 7 7 7 7 8 8 8 8 8 9 9 9 9 9 9 9 8 5 8
10 8 10 13 12 12 11 11 10 10 10 10 11 11 11 11 11 11 10 9 9 8 7 7 7 7 7 7 7 7 7 6 7 8 8 4 5 9 9 9 9 8 8
11 8 9 13 12 12 11 11 10 10 10 10 10 10 10 10 10 10 9 9 9 8 8 7 7 7 7 6 6 6 6 5 7 7 4 4 4 8 9 9 9 8 8
9 7 9 14 13 12 11 10 10 10 9 9 9 9 9 9 8 9 8 8 8 8 7 7 6 6 6 6 6 6 6 6 7 6 4 3 3 7 8 9 8 8 8
8 7 8 14 13 12 11 11 10 10 9 9 9 8 8 8 8 8 8 8 7 7 7 6 6 6 5 6 5 5 5 6 6 3 3 3 2 6 8 8 8 8 8
8 6 8 14 13 12 12 11 10 10 10 9 9 8 8 8 8 7 7 7 6 6 6 5 5 5 5 5 5 5 5 5 4 3 2 2 1 5 7 8 8 8 8
9 7 7 14 14 13 12 12 11 11 10 10 9 9 8 7 7 7 6 6 5 5 5 4 3 4 4 4 5 4 4 4 5 3 2 1 1 5 6 7 7 7 7
6 6 5 7 9 13 13 12 12 11 10 10 10 9 8 8 7 7 6 6 5 4 3 2 2 3 4 4 4 4 4 4 4 2 2 1 2 4 5 6 6 6 6
4 5 5 5 5 6 7 12 12 12 11 11 10 9 9 8 7 7 6 5 5 4 3 2 1 2 3 4 4 4 4 4 2 2 1 1 2 4 5 5 5 6 6
5 4 4 5 5 5 5 9 10 11 11 10 9 10 8 3 3 3 5 6 5 4 3 2 1 1 2 4 5 4 4 1 1 1 0 1 2 3 4 5 5 5 5
7 6 4 5 5 4 6 4 4 4 5 5 4 4 3 3 2 3 4 7 6 5 4 3 2 1 3 2 3 3 1 1 0 0 1 2 2 3 4 4 5 5 5
6 6 7 6 5 5 4 3 3 2 3 4 5 5 3 3 2 2 1 2 3 3 1 1 2 1 1 1 1 1 0 0 1 1 1 2 2 2 3 4 4 5 5
3 5 6 7 6 6 5 3 3 3 3 4 5 6 4 3 3 2 2 2 2 1 1 1 1 1 1 1 1 1 1 1 1 1 1 2 2 3 3 3 3 3 4
3 4 5 6 7 6 5 4 5 5 5 5 4 5 6 4 4 3 3 2 3 2 2 2 2 2 2 2 2 3 3 3 2 2 1 2 2 3 3 3 3 3 3
7 5 4 5 6 6 6 6 5 5 5 5 5 6 7 5 5 4 4 3 3 3 3 3 3 2 2 2 3 3 4 3 3 3 1 1 2 2 2 3 3 3 3
8 7 5 4 5 6 7 7 6 5 5 6 6 7 8 7 6 5 4 4 4 3 3 2 2 2 2 2 2 2 2 3 3 3 2 1 1 2 2 3 3 3 3
9 9 8 6 4 4 6 6 5 5 6 6 5 6 8 9 8 6 5 5 4 3 3 3 2 2 2 1 1 1 1 2 3 3 2 2 2 1 2 3 2 3 3
10 9 9 8 6 5 5 6 6 5 5 5 5 6 7 8 8 7 5 5 4 3 3 4 3 2 2 2 2 1 1 1 2 3 3 3 3 2 2 2 3 2 3
9 8 8 8 7 6 4 3 4 5 5 5 5 5 6 6 8 7 5 4 4 3 3 3 3 2 2 3 2 1 0 1 2 3 4 3 3 3 3 2 1 1 3
9 9 8 8 8 6 4 3 3 4 4 4 5 6 6 6 6 6 5 4 4 4 4 5 3 3 2 2 2 1 1 1 2 3 3 3 4 4 3 3 2 2 1
9 9 8 8 8 6 4 3 3 3 3 4 5 6 7 7 6 6 6 5 4 3 3 4 3 3 2 3 3 2 0 2 2 2 2 3 4 3 4 5 4 4 3
10 10 9 9 9 8 6 4 3 2 2 2 4 5 6 7 7 6 6 6 5 5 4 4 4 5 3 2 2 4 4 4 2 2 2 2 3 3 4 3 5 5 4
10 9 8 8 8 8 7 4 4 3 3 3 3 3 4 5 7 7 7 7 6 5 5 5 4 3 3 3 1 1 2 3 3 1 2 1 2 3 4 4 4 5 5
9 8 8 8 7 8 7 6 4 3 2 2 2 2 3 3 5 6 6 6 6 6 6 6 5 5 3 4 3 2 2 1 1 2 2 2 2 2 3 4 4 4 5
8 7 7 7 7 7 7 6 5 4 3 2 1 2 2 2 2 3 4 4 5 5 6 6 6 6 5 4 3 3 3 3 3 3 3 2 2 2 2 2 3 4 4
Wind_Direction
169 169 164 150 144 137 131 126 121 120 120 120 120 121 123 125 127 128 131 132 133 133 132 130 124 120 117 114 112 110 106 102 98 91 85 83 83 86 91 93 95 93 99
151 158 158 151 147 142 137 132 128 125 123 123 123 123 124 125 126 126 127 126 126 125 125 125 124 122 120 116 114 111 106 103 98 90 83 79 82 84 88 95 100 102 102
144 152 154 153 150 147 144 139 135 131 129 127 127 126 127 128 129 128 128 126 124 122 121 120 121 121 116 114 114 107 100 100 99 94 83 59 73 84 86 91 96 99 100
145 147 151 154 153 151 149 147 144 140 137 133 131 130 129 129 130 130 130 130 128 127 124 121 121 118 111 107 105 98 90 95 101 95 71 51 62 86 86 88 92 94 95
144 144 157 156 157 156 155 154 151 146 142 139 136 134 133 133 132 134 133 131 131 129 127 124 121 118 113 105 97 93 89 91 96 91 81 63 54 88 86 85 87 92 93
144 146 162 160 162 162 161 160 158 154 150 147 145 142 140 139 140 138 138 135 134 132 129 125 121 119 114 106 96 89 89 94 96 96 86 73 62 93 92 86 85 88 91
148 153 167 166 168 169 169 168 166 163 161 158 156 152 150 148 146 145 142 138 137 134 128 122 122 120 113 104 93 86 86 104 113 109 98 81 85 100 98 94 88 86 88
156 158 169 174 175 177 177 177 176 173 171 170 166 163 162 158 154 151 146 143 142 137 128 119 110 110 104 93 83 76 78 107 123 126 119 102 128 111 104 97 93 88 89
158 162 174 179 181 185 186 185 184 182 181 179 176 175 173 170 167 164 159 156 152 146 141 127 105 94 87 79 70 64 71 108 126 142 144 150 166 127 116 109 104 95 89
163 175 180 182 181 185 190 193 191 189 189 187 185 185 185 183 181 180 174 175 175 174 175 162 115 79 63 55 55 61 70 88 127 133 114 197 171 137 127 123 117 108 99
187 195 190 190 188 186 190 200 196 195 196 193 192 195 191 186 186 189 192 198 201 202 206 212 221 10 39 37 36 55 64 64 120 126 134 222 170 151 140 135 129 122 112
201 202 200 200 197 192 201 200 192 193 191 188 184 193 177 171 193 203 215 218 218 220 228 236 254 356 49 40 24 42 47 56 128 181 254 240 183 161 150 147 141 134 126
211 209 204 202 203 200 207 198 193 187 182 184 186 186 176 176 198 209 206 245 253 248 265 323 357 34 47 31 7 2 286 210 218 242 283 247 195 173 157 157 154 145 140
230 222 215 205 206 209 210 212 199 195 192 193 191 185 178 185 201 207 206 217 227 225 224 244 260 279 278 257 246 251 251 234 214 215 270 251 214 200 173 159 153 150 154
301 266 241 213 210 210 210 218 212 210 207 202 194 193 189 195 206 210 214 211 213 206 211 226 239 255 266 265 242 231 231 223 206 200 255 256 232 234 203 174 163 159 164
353 326 286 244 219 211 214 218 217 212 212 203 202 202 199 202 206 209 219 218 214 206 206 210 226 244 259 264 259 234 222 208 198 194 201 269 258 247 241 210 188 183 189
356 348 331 270 230 221 222 225 225 215 211 213 211 206 205 205 206 207 213 220 217 200 198 203 222 231 249 243 250 239 212 198 186 192 198 217 265 263 252 242 227 210 215
358 352 346 338 320 254 235 228 229 223 212 217 212 206 209 210 207 204 211 223 211 186 184 193 200 210 226 216 219 238 201 186 191 196 204 218 229 244 262 257 254 239 238
354 349 348 347 339 318 272 237 226 223 217 219 212 207 205 207 208 205 212 221 203 189 190 201 184 183 193 195 196 221 233 208 202 205 215 225 228 227 228 262 256 242 248
346 342 344 345 340 330 312 266 233 223 222 215 212 211 205 201 201 200 206 213 197 195 197 190 180 177 178 173 166 122 295 245 220 220 223 224 227 230 224 231 244 253 247
341 340 338 343 340 337 331 309 265 237 232 221 212 208 207 199 195 191 196 189 188 200 206 188 167 167 164 135 111 63 332 292 238 237 227 226 230 227 220 222 217 216 246
333 332 331 335 332 328 312 290 264 253 239 226 213 203 205 196 190 192 187 178 180 190 191 180 161 155 164 162 147 136 262 319 288 238 228 227 229 215 220 222 213 214 216
331 331 329 329 330 325 317 303 294 269 253 230 214 204 199 192 187 181 182 178 179 181 189 184 176 168 174 192 181 154 162 214 260 293 255 241 230 217 225 220 219 217 213
324 323 324 326 327 327 326 322 312 287 271 258 241 212 191 190 186 177 176 177 179 178 182 189 181 182 168 177 196 191 158 157 163 243 296 275 248 231 231 230 228 220 213
322 324 324 324 329 331 333 333 325 312 293 280 252 193 185 182 179 178 172 173 182 183 187 186 178 186 186 180 177 167 151 122 144 157 233 285 305 262 237 230 230 226 216
328 332 329 330 332 337 343 346 347 341 333 320 275 198 175 159 157 171 169 179 186 186 190 190 183 188 194 193 190 179 171 170 183 175 200 227 262 288 280 249 234 231 221